JR3QFB-13 Weather Reports


time (UTC)temp
C
wind
direction
speed
KPH
gust
KPH
rain 1hr
cm
rain 24hr
cm
rain mn
cm
humidity
%
barometer
mb
20260902140414 28 270 6.4 6.4 0.00 0.00 0.00 76 1010.7
20260902134911 28 270 0.0 6.4 0.00 0.00 0.00 72 1010.7
20260902133409 28 270 6.4 6.4 0.00 0.00 0.00 74 1010.9
20260902131907 28 270 3.2 8.0 0.00 0.00 0.00 78 1011.3
20260902130404 28 270 3.2 6.4 0.00 0.00 0.00 78 1011.1
20260902124901 28 270 1.6 6.4 0.00 0.00 0.00 77 1011.1
20260902123359 28 270 3.2 12.9 0.00 0.00 0.00 76 1011.3
20260902121857 28 270 1.6 3.2 0.00 0.00 0.00 76 1011.5
20260902120354 28 270 1.6 4.8 0.00 0.00 0.00 76 1011.3
20260902114851 28 270 3.2 3.2 0.00 0.00 0.00 77 1011.1
20260902113349 28 270 3.2 6.4 0.00 0.00 0.00 76 1011.0
20260902111847 28 270 1.6 6.4 0.00 0.00 0.00 76 1010.9
20260902110344 28 270 6.4 6.4 0.00 0.00 0.00 75 1010.8
20260902104841 28 270 1.6 4.8 0.00 0.00 0.00 74 1010.8
20260902103339 28 270 0.0 1.6 0.00 0.00 0.00 72 1010.6
20260902101837 28 270 4.8 4.8 0.00 0.00 0.00 79 1010.7
20260902100334 28 270 0.0 1.6 0.00 0.00 0.00 69 1010.6
20260902094831 28 270 0.0 0.0 0.00 0.00 0.00 69 1010.4
20260902093329 28 270 0.0 0.0 0.00 0.00 0.00 69 1010.2
20260902091827 29 270 0.0 0.0 0.00 0.00 0.00 69 1010.0
20260902090324 29 270 0.0 1.6 0.00 0.00 0.00 70 1010.2
20260902084821 29 270 0.0 0.0 0.00 0.00 0.00 69 1009.8
20260902083319 29 270 0.0 1.6 0.00 0.00 0.00 70 1009.9
20260902081817 30 270 0.0 0.0 0.00 0.00 0.00 71 1010.1
20260902080314 30 270 0.0 1.6 0.00 0.00 0.00 72 1010.2
20260902074813 30 270 0.0 4.8 0.00 0.00 0.00 72 1010.4
20260902073309 30 270 1.6 3.2 0.00 0.00 0.00 72 1010.5
20260902071807 30 270 1.6 6.4 0.00 0.00 0.00 71 1010.3
20260902070306 30 270 1.6 3.2 0.00 0.00 0.00 70 1010.1
20260902064801 30 270 0.0 3.2 0.00 0.00 0.00 69 1010.1
20260902063259 31 270 3.2 11.3 0.00 0.00 0.00 66 1010.3
20260902061757 31 270 6.4 14.5 0.00 0.00 0.00 63 1010.1
20260902060254 31 270 3.2 3.2 0.00 0.00 0.00 65 1010.0
20260902054751 31 270 1.6 8.0 0.00 0.00 0.00 64 1010.1
20260902053249 31 270 0.0 3.2 0.00 0.00 0.00 61 1010.2
20260902051747 32 270 3.2 6.4 0.00 0.00 0.00 66 1010.3
20260902050244 31 270 1.6 4.8 0.00 0.00 0.00 72 1010.4
20260902044743 31 270 3.2 4.8 0.00 0.00 0.00 74 1010.3
20260902043239 31 270 0.0 6.4 0.00 0.00 0.00 74 1010.3
20260902041737 31 270 0.0 1.6 0.00 0.00 0.00 74 1010.6
20260902040234 31 270 0.0 4.8 0.00 0.00 0.00 71 1010.6
20260902034731 30 270 0.0 4.8 0.00 0.00 0.00 70 1010.7
20260902033229 30 270 1.6 4.8 0.00 0.00 0.00 65 1010.7
20260902031727 31 270 1.6 1.6 0.00 0.00 0.00 60 1010.8
20260902030224 31 270 0.0 3.2 0.00 0.00 0.00 61 1011.1
20260902024721 31 270 6.4 6.4 0.00 0.00 0.00 63 1011.3
20260902023219 31 270 0.0 4.8 0.00 0.00 0.00 63 1011.4
20260902021717 31 270 0.0 3.2 0.00 0.00 0.00 63 1011.8
20260902020213 31 270 1.6 3.2 0.00 0.00 0.00 63 1011.9
20260902014711 32 270 1.6 3.2 0.00 0.00 0.00 61 1011.8
20260902013209 32 270 0.0 1.6 0.00 0.00 0.00 65 1011.8
20260902011707 32 270 1.6 3.2 0.00 0.00 0.00 72 1012.0
20260902010204 32 270 0.0 3.2 0.00 0.00 0.00 74 1011.9
20260902004701 32 270 4.8 8.0 0.00 0.00 0.00 74 1012.1
20260902003158 32 270 0.0 4.8 0.00 0.00 0.00 74 1012.0
20260902001657 31 270 1.6 6.4 0.00 0.00 0.00 74 1012.0
20260902000153 31 270 1.6 4.8 0.00 0.00 0.00 74 1012.1
20260901234651 31 270 3.2 9.7 0.00 0.00 0.00 75 1012.0
20260901233148 31 270 1.6 4.8 0.00 0.00 0.00 75 1011.6
20260901231650 31 270 1.6 8.0 0.00 0.00 0.00 75 1011.8
20260901230143 31 270 3.2 6.4 0.00 0.00 0.00 74 1011.8
20260901224707 31 270 4.8 6.4 0.00 0.00 0.00 74 1012.0
20260901223138 31 270 1.6 9.7 0.00 0.00 0.00 73 1011.9
20260901221637 30 270 6.4 8.0 0.00 0.00 0.00 74 1011.9
20260901220134 30 270 0.0 4.8 0.00 0.00 0.00 73 1012.0
20260901214631 30 270 1.6 4.8 0.00 0.00 0.00 73 1012.1
20260901213128 30 270 1.6 3.2 0.00 0.00 0.00 73 1012.2
20260901211627 30 270 1.6 4.8 0.00 0.00 0.00 73 1012.3
20260901210123 30 270 1.6 4.8 0.00 0.00 0.00 72 1012.1
20260901204621 30 270 0.0 4.8 0.00 0.00 0.00 72 1012.2
20260901203118 30 270 1.6 1.6 0.00 0.00 0.00 72 1012.2
20260901201617 30 270 1.6 4.8 0.00 0.00 0.00 71 1012.1
20260901200113 30 270 0.0 1.6 0.00 0.00 0.00 70 1012.0
20260901194611 30 270 0.0 3.2 0.00 0.00 0.00 69 1012.0
20260901193108 29 270 1.6 4.8 0.00 0.00 0.00 69 1012.4
20260901191607 29 270 1.6 3.2 0.00 0.00 0.00 68 1012.3
20260901190103 29 270 3.2 4.8 0.00 0.00 0.00 68 1012.3
20260901184601 29 270 0.0 3.2 0.00 0.00 0.00 67 1012.4
20260901183058 28 270 0.0 4.8 0.00 0.00 0.00 64 1012.6
20260901181557 28 270 1.6 4.8 0.00 0.00 0.00 59 1012.6
20260901180053 28 270 1.6 3.2 0.00 0.00 0.00 59 1012.4
20260901174551 28 270 1.6 1.6 0.00 0.00 0.00 58 1012.4
20260901173048 29 270 1.6 3.2 0.00 0.00 0.00 57 1012.4
20260901171547 29 270 3.2 4.8 0.00 0.00 0.00 57 1012.3
20260901170043 29 270 0.0 3.2 0.00 0.00 0.00 56 1012.6
20260901164541 29 270 4.8 6.4 0.00 0.00 0.00 56 1012.4
20260901163038 30 270 0.0 3.2 0.00 0.00 0.00 56 1012.4
20260901161537 30 270 3.2 4.8 0.00 0.00 0.00 56 1012.5
20260901160033 30 270 1.6 3.2 0.00 0.00 0.00 57 1012.5
20260901154531 30 270 1.6 4.8 0.00 0.00 0.00 56 1012.6
20260901153028 30 270 1.6 4.8 0.00 0.00 0.00 57 1012.6
20260901151527 31 270 1.6 4.8 0.00 0.00 0.00 56 1012.6
20260901150023 31 270 1.6 6.4 0.00 0.00 0.00 57 1012.6
20260901144521 31 270 0.0 4.8 0.00 0.00 0.00 57 1012.9
20260901143018 32 270 3.2 4.8 0.00 0.00 0.00 57 1013.2